User: anonymous   Login
Location: Unspecified
(0.0000°N, 0.0000°E)
Time: 09:30:33
(UTC+00:00)
Language:

TIANWANG 1B (TW-1B) - Orbit

View from above orbital plane
View from above orbital plane
View from above satellite
View from above satellite

Ground track
Ground track

The orbit data is extracted from the following two-line orbital elements,

1 40927U 15051C   17328.13571163  .00011813  00000-0  25528-3 0  9991
2 40927  97.2191   6.5260 0009640 327.2335 109.0272 15.44611875121531
Epoch (UTC): 24 November 2017 03:15:25
Eccentricity: 0.0009640
inclination: 97.2191°
perigee height: 426 km
apogee height: 439 km
right ascension of ascending node: 6.5260°
argument of perigee: 327.2335°
revolutions per day: 15.44611875
mean anomaly at epoch: 109.0272°
orbit number at epoch: 12153

The dashed part of the orbit path shows where the satellite is in the earth's shadow,  

DLR